Location: Guayaquil
(2.1667°S, 79.9000°W)
Time: 17:33:33
(UTC-05:00)

Amateur Radio Satellites - All Passes

Search period start: 26 May 2017 17:03
Search period end: 27 May 2017 17:03
Location: Guayaquil, 2.1667°S, 79.9000°W

Satellite Date Start Highest point End Downlink Frequencies (MHz)
Time Altitude Azimuth
JUGNU 26 May 17:07:49 17:10:25 13° 177° (S) 17:13:02 437.505
LilacSat-2 26 May 17:14:03 17:15:02 11° 79° (E) 17:16:00 437.200
ISS 26 May 17:33:55 17:37:11 70° 305° (NW) 17:40:27 437.550
CUBESAT XI-V 26 May 17:35:03 17:37:37 15° 282° (WNW) 17:40:13 437.345
KKS-1 26 May 17:43:17 17:45:25 13° 282° (WNW) 17:47:34 437.445
SRMSAT 26 May 17:44:12 17:47:42 16° 189° (S) 17:51:13 437.500
XW-2D 26 May 17:45:55 17:49:24 35° 79° (E) 17:52:52 145.860 - 145.880
XW-2B 26 May 17:53:43 17:57:20 45° 79° (E) 18:00:57 145.730 - 145.750
NO-84 26 May 17:59:16 18:02:14 55° 57° (ENE) 18:05:04 435.350 FM
NUDT-PHONESAT 26 May 18:05:32 18:09:06 51° 79° (E) 18:12:42 437.300
XW-2F 26 May 18:06:12 18:09:58 74° 78° (ENE) 18:13:42 145.980 - 146.000
CUTE-I 26 May 18:06:37 18:11:52 59° 78° (ENE) 18:17:05 437.470
XW-2C 26 May 18:07:13 18:10:59 82° 79° (ENE) 18:14:46 145.795 - 145.815
KAITUO 1B 26 May 18:13:51 18:17:34 75° 79° (E) 18:21:18 145.475/437.950
STARS 26 May 18:14:02 18:16:26 15° 282° (WNW) 18:18:51 437.465
DOVE 4 26 May 18:23:43 18:28:10 31° 257° (WSW) 18:32:24 437.250
HO-68 26 May 18:29:57 18:35:27 24° 76° (ENE) 18:40:56 435.675
XW-2A 26 May 18:39:14 18:39:24 10° 79° (E) 18:39:35 145.665 - 145.685
CUTE 1.7 + AOD 2 26 May 18:44:18 18:47:31 21° 79° (ENE) 18:50:41 437.475
LilacSat-2 26 May 18:46:07 18:49:02 21° 258° (WSW) 18:51:59 437.200
PCSat 26 May 18:47:04 18:49:58 15° 289° (WNW) 18:52:51 145.827
STRAND 1 26 May 18:54:59 18:59:44 38° 103° (ESE) 19:04:30 437.568
JUGNU 26 May 18:56:09 19:00:20 20° 167° (SSE) 19:04:31 437.505
CUBEBUG 2 26 May 19:22:15 19:25:45 26° 79° (E) 19:29:13 437.445
SEEDS 26 May 19:32:31 19:36:42 60° 78° (ENE) 19:40:52 437.485
UWE-3 26 May 19:32:59 19:35:57 19° 79° (E) 19:38:54 435.000/436.395/437.385
SRMSAT 26 May 19:35:15 19:37:55 13° 178° (S) 19:40:36 437.500
Oscar 11 26 May 20:05:14 20:08:14 18° 79° (ENE) 20:11:13 .
XW-2A 26 May 20:09:46 20:11:53 16° 258° (WSW) 20:14:01 145.665 - 145.685
HO-68 26 May 20:16:24 20:22:51 37° 255° (WSW) 20:29:19 435.675
SO-50 26 May 20:17:11 20:21:49 57° 112° (ESE) 20:26:21 436.795
CUTE 1.7 + AOD 2 26 May 20:20:31 20:23:03 15° 258° (WSW) 20:25:35 437.475
M-CUBED/EXP-1 PRIME 26 May 20:22:17 20:25:35 76° 106° (ESE) 20:29:05 437.505
AO-73 26 May 20:30:56 20:35:00 58° 79° (E) 20:39:05 145.935
AAUSAT CUBESAT 2 26 May 20:32:09 20:36:09 45° 258° (WSW) 20:40:08 437.432
STRAND 1 26 May 20:36:29 20:38:39 13° 282° (WNW) 20:40:50 437.568
JUGNU 26 May 20:44:11 20:49:45 44° 161° (SSE) 20:55:18 437.505
ZACube-1 26 May 20:44:56 20:49:03 72° 259° (W) 20:53:12 437.345
DELFI C3 26 May 20:51:52 20:54:10 15° 79° (E) 20:56:29 145.870
CUBEBUG 2 26 May 21:01:12 21:02:05 11° 257° (WSW) 21:02:58 437.445
UWE-3 26 May 21:09:45 21:12:08 15° 258° (WSW) 21:14:32 435.000/436.395/437.385
TIGRISAT 26 May 21:17:52 21:21:23 21° 103° (ESE) 21:24:54 435.000
SRMSAT 26 May 21:23:58 21:28:04 19° 168° (SSE) 21:32:10 437.500
Oscar 11 26 May 21:41:09 21:44:06 18° 258° (WSW) 21:47:01 .
UNISAT 6 26 May 21:48:27 21:53:04 62° 102° (ESE) 21:57:44 437.425
PRISM 26 May 21:53:45 21:57:47 78° 281° (W) 22:01:51 437.425
FO-29 26 May 21:55:17 22:02:40 77° 104° (ESE) 22:10:32 435.910
DELFI C3 26 May 22:25:53 22:28:41 18° 258° (WSW) 22:31:28 145.870
EO-88 26 May 22:26:30 22:29:26 23° 258° (WSW) 22:32:22 145.990 - 145.960
RS-15 26 May 22:31:52 22:36:20 13° 114° (ESE) 22:40:51 29.354- 29.394
JUGNU 26 May 22:32:58 22:38:48 69° 338° (NNW) 22:44:40 437.505
TIGRISAT 26 May 22:54:26 22:57:47 19° 281° (WNW) 23:01:08 435.000
NANOSAT C BR1 26 May 23:02:00 23:04:39 16° 103° (ESE) 23:07:17 145.865
POLYITAN 1 26 May 23:06:06 23:09:22 21° 102° (ESE) 23:12:39 437.675
LO-87 26 May 23:08:25 23:12:01 76° 258° (WSW) 23:15:34 145.935 - 145.965
DUCHIFAT 1 26 May 23:12:08 23:15:13 20° 103° (ESE) 23:18:19 145.980
SRMSAT 26 May 23:12:10 23:17:44 39° 161° (SSE) 23:23:19 437.500
QB50P2 26 May 23:14:14 23:18:01 31° 102° (ESE) 23:21:49 145.880/145.840
AIST 2D 26 May 23:18:50 23:22:22 86° 282° (WNW) 23:25:54 435.315
ESTCUBE 1 26 May 23:32:24 23:36:58 85° 261° (W) 23:41:29 437.505/2401.250
YUBILEINY 26 May 23:34:41 23:41:38 27° 94° (E) 23:48:31 435.215
FO-29 26 May 23:45:13 23:47:30 12° 281° (WNW) 23:49:48 435.910
EO-79 26 May 23:50:46 23:55:02 81° 279° (W) 23:59:19 145.935-145.965
SPROUT 27 May 00:19:38 00:23:53 78° 79° (E) 00:28:07 437.525
50 SAT 27 May 00:20:49 00:23:54 29° 79° (E) 00:26:57 437.505
JUGNU 27 May 00:23:10 00:27:57 25° 341° (NNW) 00:32:45 437.505
VELOX 1 27 May 00:27:12 00:31:40 84° 261° (W) 00:36:05 145.980
Oscar 19 27 May 00:29:35 00:32:33 16° 104° (ESE) 00:35:32 437.125/150
NANOSAT C BR1 27 May 00:36:58 00:40:04 20° 281° (WNW) 00:43:12 145.865
RS-15 27 May 00:37:03 00:48:35 89° 290° (WNW) 01:00:44 29.354- 29.394
POLYITAN 1 27 May 00:42:23 00:44:53 15° 281° (WNW) 00:47:23 437.675
DUCHIFAT 1 27 May 00:47:58 00:50:37 16° 281° (WNW) 00:53:16 145.980
UKube-1 27 May 00:54:02 00:57:59 34° 78° (ENE) 01:01:53 .
SRMSAT 27 May 01:01:00 01:07:01 78° 338° (NNW) 01:13:02 437.500
DX 1 27 May 01:01:53 01:06:16 78° 79° (ENE) 01:10:36 434.975-435.025
BUGSAT 1 27 May 01:03:36 01:07:33 41° 281° (WNW) 01:11:33 437.445
YUBILEINY 27 May 01:30:12 01:38:02 38° 272° (W) 01:45:53 435.215
Gurwin Techsat 1B 27 May 01:46:39 01:51:57 76° 103° (ESE) 01:57:16 435.225
AO-85 27 May 01:55:44 01:59:34 24° 114° (ESE) 02:03:10 145.980
Oscar 19 27 May 02:07:07 02:11:35 31° 282° (WNW) 02:16:03 437.125/150
BEESAT 27 May 02:11:16 02:14:26 18° 78° (ENE) 02:17:35 436.000
JUGNU 27 May 02:15:51 02:17:35 11° 348° (NNW) 02:19:19 437.505
O/OREOS (USA 219) 27 May 02:38:22 02:42:58 78° 285° (WNW) 02:47:33 437.305
BEESAT 3 27 May 02:50:05 02:53:13 23° 112° (ESE) 02:56:21 437.485
SRMSAT 27 May 02:51:11 02:56:18 29° 340° (NNW) 03:01:25 437.500
RS-15 27 May 02:56:42 03:00:59 12° 294° (WNW) 03:05:22 29.354- 29.394
ITAMSAT 1 27 May 03:08:50 03:13:58 59° 103° (ESE) 03:19:07 435.822/435.867
ITUPSAT 1 27 May 03:14:01 03:18:44 66° 258° (WSW) 03:23:27 437.325
AO-7 27 May 03:23:48 03:32:09 76° 106° (ESE) 03:40:31 .
MOZHAYETS 4 27 May 03:25:55 03:30:30 87° 77° (ENE) 03:35:05
AO-85 27 May 03:36:48 03:39:42 16° 290° (WNW) 03:42:28 145.980
BEESAT 27 May 03:48:12 03:51:57 23° 257° (WSW) 03:55:40 436.000
BEESAT 2 27 May 04:07:34 04:11:26 89° 288° (WNW) 04:15:21 435.950
CUBESAT XI-V 27 May 04:13:11 04:17:36 40° 78° (ENE) 04:21:59 437.345
KKS-1 27 May 04:16:25 04:20:28 34° 78° (ENE) 04:24:29 437.445
BEESAT 3 27 May 04:29:34 04:30:32 11° 292° (WNW) 04:31:29 437.485
Tancredo 1 27 May 04:33:37 04:36:02 21° 55° (NE) 04:38:28 437.200
SRMSAT 27 May 04:43:35 04:46:02 13° 347° (NNW) 04:48:31 437.500
STARS 27 May 04:46:14 04:50:03 29° 78° (ENE) 04:53:50 437.465
DOVE 4 27 May 05:07:47 05:11:31 26° 103° (ESE) 05:15:25 437.250
ISS 27 May 05:09:03 05:12:06 38° 55° (NE) 05:15:10 437.550
LilacSat-2 27 May 05:10:14 05:10:29 10° 102° (ESE) 05:10:44 437.200
CUTE-I 27 May 05:10:24 05:12:31 12° 104° (ESE) 05:14:39 437.470
AO-7 27 May 05:21:20 05:24:30 13° 287° (WNW) 05:27:42 .
PCSat 27 May 05:38:45 05:44:09 84° 251° (WSW) 05:49:33 145.827
NO-84 27 May 05:40:31 05:44:39 77° 121° (ESE) 05:48:59 435.350 FM
XW-2D 27 May 05:40:42 05:44:07 32° 101° (ESE) 05:47:32 145.860 - 145.880
XW-2B 27 May 05:48:29 05:52:04 41° 101° (ESE) 05:55:40 145.730 - 145.750
NUDT-PHONESAT 27 May 05:58:05 06:01:38 41° 101° (ESE) 06:05:11 437.300
XW-2F 27 May 06:00:32 06:04:16 64° 101° (ESE) 06:08:01 145.980 - 146.000
XW-2C 27 May 06:01:57 06:05:45 73° 101° (E) 06:09:33 145.795 - 145.815
KAITUO 1B 27 May 06:07:13 06:10:55 62° 102° (ESE) 06:14:37 145.475/437.950
HO-68 27 May 06:23:03 06:28:19 22° 106° (ESE) 06:33:33 435.675
STARS 27 May 06:24:44 06:26:05 11° 257° (WSW) 06:27:26 437.465
LilacSat-2 27 May 06:41:23 06:44:29 23° 281° (W) 06:47:34 437.200
DOVE 4 27 May 06:46:45 06:49:00 14° 280° (W) 06:51:19 437.250
CUTE-I 27 May 06:47:13 06:52:14 42° 282° (WNW) 06:57:17 437.470
CUTE 1.7 + AOD 2 27 May 06:51:16 06:54:52 28° 102° (ESE) 06:58:28 437.475
STRAND 1 27 May 07:26:06 07:31:13 87° 76° (ENE) 07:36:17 437.568
CUBEBUG 2 27 May 07:34:28 07:39:02 50° 102° (ESE) 07:43:39 437.445
SEEDS 27 May 07:38:45 07:42:55 82° 102° (ESE) 07:47:05 437.485
JUGNU 27 May 07:43:46 07:47:59 20° 17° (NNE) 07:52:13 437.505
UWE-3 27 May 07:43:53 07:48:07 35° 102° (ESE) 07:52:21 435.000/436.395/437.385
XW-2A 27 May 07:52:33 07:55:33 28° 281° (W) 07:58:34 145.665 - 145.685
HO-68 27 May 08:09:05 08:15:40 40° 284° (WNW) 08:22:18 435.675
Oscar 11 27 May 08:14:21 08:18:00 27° 102° (ESE) 08:21:38 .
M-CUBED/EXP-1 PRIME 27 May 08:19:38 08:24:13 65° 75° (ENE) 08:28:35 437.505
CUTE 1.7 + AOD 2 27 May 08:29:25 08:30:26 11° 281° (W) 08:31:27 437.475
SO-50 27 May 08:30:45 08:35:18 86° 68° (ENE) 08:39:56 436.795
AAUSAT CUBESAT 2 27 May 08:36:52 08:40:36 34° 281° (W) 08:44:21 437.432
AO-73 27 May 08:41:00 08:45:33 87° 281° (W) 08:50:06 145.935
DELFI C3 27 May 08:51:07 08:53:25 15° 102° (ESE) 08:55:44 145.870
ZACube-1 27 May 08:55:33 08:59:56 47° 282° (WNW) 09:04:19 437.345
UWE-3 27 May 09:22:52 09:24:17 11° 281° (WNW) 09:25:43 435.000/436.395/437.385
TIGRISAT 27 May 09:29:47 09:33:16 25° 79° (ENE) 09:36:43 435.000
FO-29 27 May 09:30:17 09:35:10 32° 79° (E) 09:39:44 435.910
JUGNU 27 May 09:31:29 09:37:17 49° 21° (NNE) 09:43:02 437.505
Oscar 11 27 May 09:52:13 09:53:52 12° 281° (WNW) 09:55:30 .
PRISM 27 May 09:55:07 09:59:18 81° 258° (WSW) 10:03:26 437.425
UNISAT 6 27 May 10:00:54 10:05:11 84° 80° (E) 10:09:26 437.425
SRMSAT 27 May 10:13:07 10:16:58 18° 16° (NNE) 10:20:49 437.500
EO-88 27 May 10:17:02 10:20:17 30° 281° (W) 10:23:31 145.990 - 145.960
DELFI C3 27 May 10:25:23 10:27:56 17° 281° (W) 10:30:29 145.870
LO-87 27 May 10:57:17 11:00:51 74° 102° (ESE) 11:04:28 145.935 - 145.965
AIST 2D 27 May 11:03:55 11:07:15 43° 79° (E) 11:10:35 435.315
NANOSAT C BR1 27 May 11:06:28 11:09:09 17° 79° (E) 11:11:49 145.865
TIGRISAT 27 May 11:07:56 11:09:40 12° 257° (WSW) 11:11:24 435.000
POLYITAN 1 27 May 11:11:09 11:14:26 22° 79° (ENE) 11:17:42 437.675
DUCHIFAT 1 27 May 11:16:21 11:19:25 20° 79° (ENE) 11:22:28 145.980
FO-29 27 May 11:16:46 11:19:54 15° 254° (WSW) 11:22:56 435.910
QB50P2 27 May 11:19:21 11:23:09 33° 79° (ENE) 11:26:55 145.880/145.840
JUGNU 27 May 11:20:27 11:26:21 60° 201° (SSW) 11:32:13 437.505
ESTCUBE 1 27 May 11:47:46 11:52:03 47° 282° (WNW) 11:56:21 437.505/2401.250
EO-79 27 May 11:55:47 11:59:58 74° 257° (WSW) 12:04:08 145.935-145.965
SRMSAT 27 May 12:00:51 12:06:27 44° 21° (NNE) 12:12:03 437.500
50 SAT 27 May 12:06:19 12:08:38 17° 102° (ESE) 12:10:58 437.505
YUBILEINY 27 May 12:08:03 12:16:33 53° 87° (E) 12:25:02 435.215
RS-15 27 May 12:21:48 12:33:21 74° 69° (ENE) 12:44:20 29.354- 29.394
SPROUT 27 May 12:27:41 12:31:57 73° 281° (W) 12:36:15 437.525
VELOX 1 27 May 12:39:52 12:44:06 50° 282° (WNW) 12:48:23 145.980
NANOSAT C BR1 27 May 12:41:43 12:44:35 18° 257° (WSW) 12:47:27 145.865
Gurwin Techsat 1B 27 May 12:47:34 12:49:39 12° 78° (ENE) 12:51:43 435.225
POLYITAN 1 27 May 12:47:53 12:49:56 13° 257° (WSW) 12:51:59 437.675
DUCHIFAT 1 27 May 12:52:27 12:54:48 15° 257° (WSW) 12:57:10 145.980
Oscar 19 27 May 13:00:18 13:05:03 36° 78° (ENE) 13:09:46 437.125/150
UKube-1 27 May 13:03:11 13:07:21 51° 102° (ESE) 13:11:33 .
BUGSAT 1 27 May 13:05:45 13:09:33 40° 258° (WSW) 13:13:18 437.445
JUGNU 27 May 13:10:50 13:15:38 25° 196° (SSW) 13:20:26 437.505
DX 1 27 May 13:12:32 13:16:49 68° 282° (WNW) 13:21:08 434.975-435.025
SRMSAT 27 May 13:49:46 13:55:39 68° 201° (SSW) 14:01:33 437.500
AO-7 27 May 14:02:02 14:04:55 12° 73° (ENE) 14:07:47 .
ITUPSAT 1 27 May 14:02:04 14:04:31 14° 103° (ESE) 14:07:00 437.325
YUBILEINY 27 May 14:07:17 14:12:59 19° 266° (W) 14:18:43 435.215
AO-85 27 May 14:08:11 14:12:14 34° 70° (ENE) 14:16:36 145.980
Gurwin Techsat 1B 27 May 14:24:21 14:29:19 41° 257° (WSW) 14:34:17 435.225
BEESAT 27 May 14:32:56 14:37:21 38° 103° (ESE) 14:41:47 436.000
RS-15 27 May 14:38:54 14:45:23 17° 247° (WSW) 14:51:49 29.354- 29.394
Oscar 19 27 May 14:41:33 14:44:02 14° 256° (WSW) 14:46:32 437.125/150
BEESAT 3 27 May 14:43:16 14:46:05 19° 68° (ENE) 14:48:53 437.485
O/OREOS (USA 219) 27 May 14:50:45 14:55:04 50° 255° (WSW) 14:59:23 437.305
JUGNU 27 May 15:02:21 15:05:24 14° 187° (S) 15:08:28 437.505
ITUPSAT 1 27 May 15:37:53 15:42:03 30° 282° (WNW) 15:46:14 437.325
SRMSAT 27 May 15:40:06 15:45:03 27° 196° (SSW) 15:50:00 437.500
ITAMSAT 1 27 May 15:42:47 15:47:51 57° 257° (WSW) 15:52:54 435.822/435.867
MOZHAYETS 4 27 May 15:43:50 15:48:16 48° 282° (WNW) 15:52:43
AO-7 27 May 15:49:01 15:57:17 76° 254° (WSW) 16:05:33 .
AO-85 27 May 15:50:38 15:52:34 12° 245° (WSW) 15:54:34 145.980
Tancredo 1 27 May 16:01:37 16:03:47 17° 126° (SE) 16:05:55 437.200
BEESAT 2 27 May 16:01:38 16:05:36 75° 68° (ENE) 16:09:31 435.950
BEESAT 27 May 16:13:53 16:14:52 11° 282° (WNW) 16:15:51 436.000
BEESAT 3 27 May 16:21:23 16:23:23 14° 248° (WSW) 16:25:24 437.485
KKS-1 27 May 16:29:30 16:33:52 59° 102° (ESE) 16:38:16 437.445
PCSat 27 May 16:31:45 16:36:00 23° 110° (ESE) 16:40:14 145.827
CUBESAT XI-V 27 May 16:32:19 16:36:54 81° 100° (E) 16:41:30 437.345
ISS 27 May 16:42:08 16:45:13 37° 126° (SE) 16:48:16 437.550
JUGNU 27 May 16:52:45 16:55:29 13° 176° (S) 16:58:14 437.505
